| time (UTC) | temp C | wind direction | speed KPH | gust KPH | rain 1hr cm | rain 24hr cm | rain mn cm | humidity % | barometer mb |
| 20260906122528 | 13 | 135 | 1.6 | 3.2 | 0.00 | 0.00 | 0.00 | 96 | |
| 20260906121531 | 13 | 115 | 3.2 | 4.8 | 0.00 | 0.00 | 0.00 | 95 | |
| 20260906120521 | 13 | 96 | 1.6 | 4.8 | 0.00 | 0.00 | 0.00 | 94 | |
| 20260906115550 | 13 | 220 | 3.2 | 4.8 | 0.00 | 0.00 | 0.00 | 94 | |
| 20260906114537 | 13 | 202 | 3.2 | 4.8 | 0.00 | 0.00 | 0.00 | 94 | |
| 20260906113526 | 13 | 113 | 0.0 | 1.6 | 0.00 | 0.00 | 0.00 | 95 | |
| 20260906112535 | 13 | 0.0 | 0.0 | 0.00 | 0.00 | 0.00 | 95 | ||
| 20260906111547 | 13 | 158 | 0.0 | 3.2 | 0.00 | 0.00 | 0.00 | 94 | |
| 20260906110532 | 13 | 0.0 | 0.0 | 0.00 | 0.00 | 0.00 | 94 | ||
| 20260906105521 | 13 | 150 | 1.6 | 3.2 | 0.00 | 0.00 | 0.00 | 94 | |
| 20260906104549 | 13 | 124 | 3.2 | 4.8 | 0.00 | 0.00 | 0.00 | 94 | |
| 20260906103519 | 13 | 0.0 | 0.0 | 0.00 | 0.00 | 0.00 | 95 | ||
| 20260906102527 | 13 | 213 | 3.2 | 4.8 | 0.00 | 0.00 | 0.00 | 95 | |
| 20260906101636 | 13 | 199 | 3.2 | 4.8 | 0.00 | 0.00 | 0.00 | 95 | |
| 20260906100527 | 13 | 196 | 3.2 | 4.8 | 0.00 | 0.00 | 0.00 | 95 | |
| 20260906095534 | 13 | 220 | 4.8 | 4.8 | 0.00 | 0.00 | 0.00 | 95 | |
| 20260906094542 | 13 | 216 | 3.2 | 4.8 | 0.00 | 0.00 | 0.00 | 95 | |
| 20260906093530 | 13 | 217 | 3.2 | 4.8 | 0.00 | 0.00 | 0.00 | 95 | |
| 20260906092519 | 13 | 224 | 4.8 | 6.4 | 0.00 | 0.00 | 0.00 | 96 | |
| 20260906091527 | 13 | 218 | 3.2 | 6.4 | 0.00 | 0.00 | 0.00 | 96 | |
| 20260906090535 | 13 | 0.0 | 0.0 | 0.00 | 0.00 | 0.00 | 96 | ||
| 20260906085526 | 13 | 0.0 | 0.0 | 0.00 | 0.00 | 0.00 | 96 | ||
| 20260906084535 | 13 | 0.0 | 0.0 | 0.00 | 0.00 | 0.00 | 96 | ||
| 20260906083602 | 13 | 0.0 | 0.0 | 0.00 | 0.00 | 0.00 | 96 | ||
| 20260906082550 | 13 | 0.0 | 0.0 | 0.00 | 0.00 | 0.00 | 96 | ||
| 20260906081519 | 13 | 0.0 | 0.0 | 0.00 | 0.00 | 0.00 | 95 | ||
| 20260906080527 | 13 | 0.0 | 0.0 | 0.00 | 0.00 | 0.00 | 95 | ||
| 20260906075535 | 14 | 0.0 | 0.0 | 0.00 | 0.00 | 0.00 | 95 | ||
| 20260906074526 | 14 | 0.0 | 0.0 | 0.00 | 0.00 | 0.00 | 94 | ||
| 20260906073533 | 14 | 0.0 | 0.0 | 0.00 | 0.00 | 0.00 | 93 | ||
| 20260906072522 | 14 | 0.0 | 0.0 | 0.00 | 0.00 | 0.00 | 93 | ||
| 20260906071531 | 14 | 0.0 | 0.0 | 0.00 | 0.00 | 0.00 | 93 | ||
| 20260906070520 | 15 | 158 | 0.0 | 3.2 | 0.00 | 0.00 | 0.00 | 92 | |
| 20260906065527 | 15 | 226 | 4.8 | 6.4 | 0.00 | 0.00 | 0.00 | 92 | |
| 20260906064536 | 15 | 215 | 4.8 | 8.0 | 0.00 | 0.00 | 0.00 | 92 | |
| 20260906063526 | 15 | 234 | 4.8 | 6.4 | 0.00 | 0.00 | 0.00 | 92 | |
| 20260906062533 | 15 | 234 | 6.4 | 8.0 | 0.00 | 0.00 | 0.00 | 92 | |
| 20260906061522 | 14 | 233 | 4.8 | 8.0 | 0.00 | 0.00 | 0.00 | 92 | |
| 20260906060530 | 14 | 215 | 3.2 | 6.4 | 0.00 | 0.00 | 0.00 | 92 | |
| 20260906055520 | 15 | 124 | 1.6 | 3.2 | 0.00 | 0.00 | 0.00 | 91 | |
| 20260906054527 | 15 | 178 | 1.6 | 3.2 | 0.00 | 0.00 | 0.00 | 90 | |
| 20260906053535 | 15 | 179 | 3.2 | 4.8 | 0.00 | 0.00 | 0.00 | 90 | |
| 20260906052531 | 15 | 179 | 4.8 | 4.8 | 0.00 | 0.00 | 0.00 | 90 | |
| 20260906051533 | 15 | 195 | 1.6 | 4.8 | 0.00 | 0.00 | 0.00 | 90 | |
| 20260906050543 | 15 | 236 | 4.8 | 6.4 | 0.00 | 0.00 | 0.00 | 89 | |
| 20260906045531 | 15 | 224 | 4.8 | 6.4 | 0.00 | 0.00 | 0.00 | 89 | |
| 20260906044520 | 15 | 217 | 6.4 | 6.4 | 0.00 | 0.00 | 0.00 | 88 | |
| 20260906043548 | 15 | 238 | 6.4 | 8.0 | 0.00 | 0.00 | 0.00 | 88 | |
| 20260906042536 | 15 | 236 | 8.0 | 11.3 | 0.00 | 0.00 | 0.00 | 87 | |
| 20260906041526 | 15 | 223 | 6.4 | 9.7 | 0.00 | 0.00 | 0.00 | 87 | |
| 20260906040534 | 15 | 231 | 8.0 | 9.7 | 0.00 | 0.00 | 0.00 | 86 | |
| 20260906035523 | 16 | 211 | 6.4 | 9.7 | 0.00 | 0.00 | 0.00 | 85 | |
| 20260906034551 | 16 | 231 | 9.7 | 12.9 | 0.00 | 0.00 | 0.00 | 85 | |
| 20260906033520 | 16 | 219 | 6.4 | 11.3 | 0.00 | 0.00 | 0.00 | 84 | |
| 20260906032528 | 16 | 223 | 9.7 | 12.9 | 0.00 | 0.00 | 0.00 | 83 | |
| 20260906031556 | 16 | 219 | 9.7 | 14.5 | 0.00 | 0.00 | 0.00 | 82 | |
| 20260906030527 | 16 | 217 | 8.0 | 12.9 | 0.00 | 0.00 | 0.00 | 81 | |
| 20260906025533 | 17 | 221 | 9.7 | 12.9 | 0.00 | 0.00 | 0.00 | 80 | |
| 20260906024521 | 17 | 209 | 8.0 | 9.7 | 0.00 | 0.00 | 0.00 | 78 | |
| 20260906023530 | 18 | 217 | 9.7 | 12.9 | 0.00 | 0.00 | 0.00 | 76 | |
| 20260906022520 | 18 | 221 | 8.0 | 14.5 | 0.00 | 0.00 | 0.00 | 73 | |
| 20260906021527 | 18 | 226 | 6.4 | 8.0 | 0.00 | 0.00 | 0.00 | 71 | |
| 20260906020535 | 18 | 220 | 9.7 | 11.3 | 0.00 | 0.00 | 0.00 | 70 | |
| 20260906015527 | 19 | 203 | 9.7 | 11.3 | 0.00 | 0.00 | 0.00 | 69 | |
| 20260906014534 | 19 | 215 | 9.7 | 12.9 | 0.00 | 0.00 | 0.00 | 67 | |
| 20260906013542 | 20 | 225 | 12.9 | 16.1 | 0.00 | 0.00 | 0.00 | 67 | |
| 20260906012529 | 20 | 218 | 12.9 | 17.7 | 0.00 | 0.00 | 0.00 | 66 | |
| 20260906011537 | 20 | 238 | 4.8 | 8.0 | 0.00 | 0.00 | 0.00 | 61 | |
| 20260906010527 | 20 | 234 | 8.0 | 11.3 | 0.00 | 0.00 | 0.00 | 60 | |
| 20260906005635 | 21 | 226 | 9.7 | 14.5 | 0.00 | 0.00 | 0.00 | 59 | |
| 20260906004544 | 21 | 231 | 9.7 | 11.3 | 0.00 | 0.00 | 0.00 | 58 | |
| 20260906003532 | 21 | 254 | 6.4 | 9.7 | 0.00 | 0.00 | 0.00 | 57 | |
| 20260906002521 | 21 | 297 | 4.8 | 8.0 | 0.00 | 0.00 | 0.00 | 56 | |
| 20260906001529 | 22 | 265 | 8.0 | 12.9 | 0.00 | 0.00 | 0.00 | 56 | |
| 20260906000537 | 22 | 247 | 6.4 | 9.7 | 0.00 | 0.00 | 0.00 | 56 | |
| 20260905235527 | 22 | 236 | 6.4 | 11.3 | 0.00 | 0.00 | 0.00 | 55 | |
| 20260905234535 | 21 | 242 | 6.4 | 9.7 | 0.00 | 0.00 | 0.00 | 56 | |
| 20260905233544 | 21 | 323 | 4.8 | 9.7 | 0.00 | 0.00 | 0.00 | 57 | |
| 20260905232531 | 21 | 270 | 4.8 | 9.7 | 0.00 | 0.00 | 0.00 | 56 | |
| 20260905231521 | 22 | 230 | 9.7 | 12.9 | 0.00 | 0.00 | 0.00 | 56 | |
| 20260905230529 | 21 | 235 | 6.4 | 9.7 | 0.00 | 0.00 | 0.00 | 58 | |
| 20260905225537 | 21 | 242 | 9.7 | 12.9 | 0.00 | 0.00 | 0.00 | 57 | |
| 20260905224527 | 22 | 246 | 9.7 | 12.9 | 0.00 | 0.00 | 0.00 | 56 | |
| 20260905223615 | 22 | 220 | 11.3 | 16.1 | 0.00 | 0.00 | 0.00 | 56 | |
| 20260905222523 | 21 | 296 | 4.8 | 9.7 | 0.00 | 0.00 | 0.00 | 58 | |
| 20260905221532 | 21 | 211 | 9.7 | 12.9 | 0.00 | 0.00 | 0.00 | 56 | |
| 20260905220521 | 21 | 269 | 4.8 | 9.7 | 0.00 | 0.00 | 0.00 | 57 | |
| 20260905215529 | 21 | 210 | 9.7 | 14.5 | 0.00 | 0.00 | 0.00 | 56 | |
| 20260905214616 | 22 | 230 | 8.0 | 17.7 | 0.00 | 0.00 | 0.00 | 56 | |
| 20260905213527 | 21 | 229 | 6.4 | 8.0 | 0.00 | 0.00 | 0.00 | 57 | |
| 20260905212533 | 21 | 166 | 3.2 | 6.4 | 0.00 | 0.00 | 0.00 | 58 | |
| 20260905211522 | 22 | 267 | 4.8 | 8.0 | 0.00 | 0.00 | 0.00 | 57 | |
| 20260905210530 | 20 | 238 | 8.0 | 11.3 | 0.00 | 0.00 | 0.00 | 61 | |
| 20260905205519 | 20 | 229 | 6.4 | 9.7 | 0.00 | 0.00 | 0.00 | 61 | |
| 20260905204548 | 20 | 300 | 3.2 | 6.4 | 0.00 | 0.00 | 0.00 | 62 | |
| 20260905203536 | 20 | 301 | 4.8 | 9.7 | 0.00 | 0.00 | 0.00 | 62 | |
| 20260905202527 | 20 | 273 | 3.2 | 8.0 | 0.00 | 0.00 | 0.00 | 61 | |
| 20260905201533 | 20 | 4 | 4.8 | 11.3 | 0.00 | 0.00 | 0.00 | 62 | |
| 20260905200522 | 20 | 250 | 4.8 | 8.0 | 0.00 | 0.00 | 0.00 | 60 | |
| 20260905195537 | 20 | 173 | 8.0 | 9.7 | 0.00 | 0.00 | 0.00 | 60 | |
| 20260905194520 | 20 | 114 | 4.8 | 8.0 | 0.00 | 0.00 | 0.00 | 62 | |
| 20260905193527 | 20 | 178 | 3.2 | 4.8 | 0.00 | 0.00 | 0.00 | 64 | |
| 20260905192535 | 20 | 184 | 6.4 | 11.3 | 0.00 | 0.00 | 0.00 | 66 | |
| 20260905191527 | 18 | 275 | 3.2 | 4.8 | 0.00 | 0.00 | 0.00 | 69 | |
| 20260905190535 | 18 | 121 | 4.8 | 6.4 | 0.00 | 0.00 | 0.00 | 70 | |
| 20260905185522 | 18 | 147 | 6.4 | 8.0 | 0.00 | 0.00 | 0.00 | 68 | |
| 20260905184529 | 18 | 134 | 4.8 | 8.0 | 0.00 | 0.00 | 0.00 | 69 | |
| 20260905183519 | 18 | 121 | 6.4 | 8.0 | 0.00 | 0.00 | 0.00 | 69 | |
| 20260905182527 | 18 | 151 | 6.4 | 9.7 | 0.00 | 0.00 | 0.00 | 71 | |
| 20260905181535 | 18 | 100 | 6.4 | 11.3 | 0.00 | 0.00 | 0.00 | 72 | |
| 20260905180524 | 18 | 54 | 4.8 | 8.0 | 0.00 | 0.00 | 0.00 | 72 | |
| 20260905175535 | 18 | 109 | 4.8 | 8.0 | 0.00 | 0.00 | 0.00 | 72 | |
| 20260905174521 | 17 | 80 | 4.8 | 8.0 | 0.00 | 0.00 | 0.00 | 74 | |
| 20260905173550 | 17 | 82 | 8.0 | 9.7 | 0.00 | 0.00 | 0.00 | 75 | |
| 20260905172519 | 17 | 38 | 6.4 | 8.0 | 0.00 | 0.00 | 0.00 | 74 | |
| 20260905171527 | 18 | 61 | 4.8 | 8.0 | 0.00 | 0.00 | 0.00 | 75 | |
| 20260905170535 | 17 | 150 | 3.2 | 6.4 | 0.00 | 0.00 | 0.00 | 77 | |
| 20260905165527 | 17 | 112 | 1.6 | 4.8 | 0.00 | 0.00 | 0.00 | 79 | |
| 20260905164535 | 16 | 62 | 3.2 | 4.8 | 0.00 | 0.00 | 0.00 | 82 | |
| 20260905163543 | 16 | 46 | 4.8 | 6.4 | 0.00 | 0.00 | 0.00 | 82 | |
| 20260905162530 | 16 | 15 | 3.2 | 6.4 | 0.00 | 0.00 | 0.00 | 81 | |
| 20260905161519 | 16 | 44 | 1.6 | 3.2 | 0.00 | 0.00 | 0.00 | 85 | |
| 20260905160608 | 15 | 61 | 3.2 | 6.4 | 0.00 | 0.00 | 0.00 | 88 | |
| 20260905155536 | 15 | 61 | 4.8 | 6.4 | 0.00 | 0.00 | 0.00 | 88 | |
| 20260905154527 | 15 | 77 | 6.4 | 9.7 | 0.00 | 0.00 | 0.00 | 88 | |
| 20260905153533 | 15 | 118 | 6.4 | 8.0 | 0.00 | 0.00 | 0.00 | 89 | |
| 20260905152522 | 14 | 114 | 4.8 | 6.4 | 0.00 | 0.00 | 0.00 | 90 | |
| 20260905151551 | 13 | 91 | 3.2 | 6.4 | 0.00 | 0.00 | 0.00 | 93 | |
| 20260905150520 | 13 | 70 | 3.2 | 6.4 | 0.00 | 0.05 | 0.00 | 94 | |
| 20260905145528 | 13 | 89 | 4.8 | 4.8 | 0.00 | 0.08 | 0.00 | 95 | |
| 20260905144536 | 13 | 0.0 | 0.0 | 0.00 | 0.08 | 0.00 | 96 | ||
| 20260905143527 | 13 | 57 | 3.2 | 4.8 | 0.00 | 0.08 | 0.00 | 96 | |
| 20260905142614 | 13 | 75 | 1.6 | 3.2 | 0.00 | 0.08 | 0.00 | 98 | |
| 20260905141523 | 13 | 0.0 | 0.0 | 0.00 | 0.08 | 0.00 | 99 | ||
| 20260905140531 | 12 | 0.0 | 0.0 | 0.00 | 0.08 | 0.00 | 99 | ||
| 20260905135520 | 12 | 0.0 | 0.0 | 0.00 | 0.08 | 0.00 | 99 | ||
| 20260905134528 | 12 | 0.0 | 0.0 | 0.00 | 0.10 | 0.00 | 99 | ||
| 20260905133556 | 12 | 0.0 | 0.0 | 0.00 | 0.10 | 0.00 | 99 | ||
| 20260905132527 | 12 | 0.0 | 0.0 | 0.00 | 0.10 | 0.00 | 99 | ||
| 20260905131534 | 12 | 0.0 | 0.0 | 0.00 | 0.10 | 0.00 | 99 | ||
| 20260905130543 | 12 | 0.0 | 0.0 | 0.00 | 0.10 | 0.00 | 99 | ||
| 20260905125531 | 12 | 0.0 | 0.0 | 0.00 | 0.10 | 0.00 | 99 | ||
| 20260905124522 | 12 | 46 | 3.2 | 6.4 | 0.00 | 0.10 | 0.00 | 99 | |
| 20260905123529 | 12 | 0.0 | 0.0 | 0.00 | 0.10 | 0.00 | 99 |